Regional Weather Roundup
Issued by NWS

Home | Current Version | Previous Version | Graphics & Text | Print | Product List | Glossary On
Versions: 1 2 3 4 5 6 7 8 9 10 11 12 13 14 15 16 17 18 19 20 21 22 23 24 25 26 27 28 29 30 31 32 33 34 35 36 37 38 39 40 41 42 43 44 45 46 47 48 49 50
000
ASUS45 KPSR 260110
RWRAZ

ARIZONA HOURLY REGIONAL WEATHER ROUNDUP
NATIONAL WEATHER SERVICE PHOENIX AZ
600 PM MST THU MAY 25 2017

NOTE: FAIR INDICATES FEW OR NO CLOUDS BELOW 12,000 FEET WITH NO
SIGNIFICANT WEATHER AND/OR OBSTRUCTIONS TO VISIBILITY.

AZZ001>003-036-260200-
NORTHWEST ARIZONA

CITY           SKY/WX    TMP DP  RH WIND       PRES   REMARKS
BULLHEAD CITY  SUNNY    100   7   3 MISG      29.45S
KINGMAN        SUNNY     87  20   8 S21G30    29.68S
$$

AZZ004>008-015-016-018-260200-
NORTH CENTRAL ARIZONA

CITY           SKY/WX    TMP DP  RH WIND       PRES   REMARKS
GRAND CANYON   MOSUNNY   71  17  12 SW23G33   29.85S
WILLIAMS       SUNNY     70  16  12 SW18G30   29.90S
PRESCOTT       SUNNY     77   5   6 S16G24    29.83F
FLAGSTAFF      MOSUNNY   67  12  12 SW22G35   29.92S
PAYSON         MOSUNNY   77   9   7 S16G26    29.90F
PAGE           MOSUNNY   86  17   8 SW12G29   29.60S
$$

AZZ009>014-017-260200-
NORTHEAST ARIZONA

CITY           SKY/WX    TMP DP  RH WIND       PRES   REMARKS
WINSLOW        SUNNY     80  15   8 SW26G39   29.79R
SAINT JOHNS    SUNNY     77  -1   5 W29G39    29.85S
WINDOW ROCK    MOSUNNY   75  16  10 SW28G36   29.85S
SHOW LOW       MOSUNNY   70   5   8 SW24G35   29.93S
$$

AZZ540-542>544-546-548-260200-
GREATER PHOENIX AREA

CITY           SKY/WX    TMP DP  RH WIND       PRES   REMARKS
PHOENIX        PTSUNNY   96  22   7 SW17      29.60S
BUCKEYE        PTSUNNY   95  21   7 SW13      29.60S
GLENDALE       PTSUNNY   99  16   5 S12G22    29.61F
LUKE AFB       MOSUNNY   97  19   6 SW18      29.59F
DEER VALLEY    MOSUNNY   94  16   6 SW17      29.62F
SCOTTSDALE     MOSUNNY   95  18   6 SW14G21   29.65S
MESA-GATEWAY   PTSUNNY   97  21   6 W14G20    29.64
CHANDLER       SUNNY     97  23   7 SW16G31   29.62F
$$

AZZ539-553-260200-
SOUTHWEST MARICOPA COUNTY AND PINAL COUNTY

CITY           SKY/WX    TMP DP  RH WIND       PRES   REMARKS
CASA GRANDE    PTSUNNY   95  21   7 SW20      29.65S
GILA BEND      PTSUNNY   97  19   6 SW24      29.60S
$$

AZZ503-504-507>509-260200-
SOUTHEAST ARIZONA

CITY           SKY/WX    TMP DP  RH WIND       PRES   REMARKS
TUCSON         PTSUNNY   91  15   6 SW13G26   29.78R
DAVIS-MONTHAN  PTSUNNY   90  20   7 W13G23    29.77R
RYAN FIELD     SUNNY     91  18   6 SW20      29.75S
NOGALES        PTSUNNY   85  27  12 SW17G29   29.88S
SIERRA VISTA   PTSUNNY   83  16   8 W23G30    29.92R
DOUGLAS        PTSUNNY   85  22  10 W18G26    29.88S
SAFFORD        CLOUDY    89  12   5 W23G33    29.74R
$$

AZZ532-260200-
SOUTHWEST ARIZONA

CITY           SKY/WX    TMP DP  RH WIND       PRES   REMARKS
YUMA           MOSUNNY   97  21   6 S18       29.57R
$$

CAZ041-043-047-048-061-525>527-560>570-260200-
SOUTHERN CALIFORNIA

CITY           SKY/WX    TMP DP  RH WIND       PRES   REMARKS
DOWNTOWN L.A.  SUNNY     67  50  54 VRB3      29.84F
L.A. AIRPORT   MOSUNNY   64  51  62 W13       29.86S
SAN DIEGO      PTSUNNY   65  51  60 W12       29.88F
BURBANK        PTSUNNY   64  47  53 S9        29.83F
ONTARIO        MOSUNNY   67  48  50 SW14      29.82S
RIVERSIDE      SUNNY     66  50  56 W14G22    29.82S
PALM SPRINGS   SUNNY     89  37  16 NW20G26   29.57F
EL CENTRO NAS  MOSUNNY   87  39  18 W32G39    29.59R
IMPERIAL       LGT RAIN  88  45  22 W23G32    29.56S
BLYTHE         SUNNY     98  26   7 SW20      29.52F
NEEDLES        SUNNY    101   4   3 SW16G31   29.50R
$$

NVZ020-UTZ003-260200-
SOUTHERN NEVADA-UTAH

CITY           SKY/WX    TMP DP  RH WIND       PRES   REMARKS
LAS VEGAS      MOSUNNY   94  10   4 S20G37    29.48F
SALT LAKE CITY PTSUNNY   69  25  19 N9        29.71F
$$

NMZ009-TXZ055-260200-
NEW MEXICO-WEST TEXAS

CITY           SKY/WX    TMP DP  RH WIND       PRES   REMARKS
ALBUQUERQUE    CLOUDY    83  -1   4 W25G40    29.77R
EL PASO        PTSUNNY   91  21   8 W24G36    29.77S
$$


........................KEY........................
SKY/WX - SKY CONDITION/WEATHER
TMP    - TEMPERATURE IN FAHRENHEIT
DP     - DEW POINT IN FAHRENHEIT
RH     - RELATIVE HUMIDITY IN PERCENT
WIND   - DIRECTION AND SPEED IN MILES PER HOUR (MPH)
VRB    - VARIABLE WIND DIRECTION
PRES   - MEAN SEA LEVEL PRESSURE IN INCHES OF MERCURY
         F - FALLING PRESSURE   R - RISING PRESSURE
         S - STEADY PRESSURE
VSB    - VISIBILITY IN MILES
HX     - HEAT INDEX IN FAHRENHEIT
WCI    - WIND CHILL INDEX IN FAHRENHEIT
TC     - TEMPERATURE IN CELSIUS WHICH IS ALSO KNOWN AS
         TEMPERATURE IN CENTIGRADE
AFB    - AIR FORCE BASE
         LUKE AFB IS LUKE AIR FORCE BASE
         DAVIS-MONTHAN IS DAVIS-MONTHAN AIR FORCE BASE
NAS    - NAVAL AIR STATION
         EL CENTRO NAS IS EL CENTRO NAVAL AIR STATION
N/A    - NOT AVAILABLE




USA.gov is the U.S. government's official web portal to all federal, state and local government web resources and services.